User: anonymous   Login
Location: Irma
(52.9170°N, 111.2330°W)
Time: 06:22:00
(UTC-07:00)
Language:

Cosmos 1633 Rocket - Orbit

View from above orbital plane
View from above orbital plane
View from above satellite
View from above satellite

Ground track
Ground track

The orbit data is extracted from the following two-line orbital elements,

1 15593U 85020B   17023.65936260  .00000100  00000-0  91108-5 0  9993
2 15593  82.5361  37.9018 0012376 150.6068 348.6070 14.84254757722931
Epoch (UTC): 23 January 2017 15:49:28
Eccentricity: 0.0012376
inclination: 82.5361°
perigee height: 607 km
apogee height: 624 km
right ascension of ascending node: 37.9018°
argument of perigee: 150.6068°
revolutions per day: 14.84254757
mean anomaly at epoch: 348.6070°
orbit number at epoch: 72293

The dashed part of the orbit path shows where the satellite is in the earth's shadow,  

DLR